Location: Avully
(45.9633°N, 6.0228°E)
Time: 21:06:07
(UTC+00:00)

FENGYUN 3A - Pass Details

Date: 23 May 2024
Orbit: 821 x 835 km, 98.6° (Epoch: 14 June)

Event Time Altitude Azimuth Distance (km) Brightness Sun altitude
Rises 02:15:20 0° 12° (NNE) 3,370 8.0 -13.9°
Reaches altitude 10° 02:17:41 10° 11° (NNE) 2,431 7.1 -13.6°
Maximum altitude 02:23:04 78° 287° (WNW) 845 3.6 -13.0°
Enters shadow 02:27:28 16° 202° (SSW) 2,050 5.1 -12.5°
